Flag for Canada Weather past 2 weeks in Kugluktuk, Nunavut Territory, Canada

Now
10 °F

Passing clouds.


Feels Like: -8 °F
Forecast: 12 / 18 °F
Wind: 18 mph from West

Location: Coppermine

Current Time: Oct 25, 2014 at 7:26:42 AM

Latest Report: Oct 25, 2014 at 7:00 AM


Visibility: 15 mi

Pressure: 29.85 "Hg

Humidity: 79%

Dew point: 5 °F

Location of KugluktukLocation

Historic Weather in Kugluktuk — Graph

°F

Kugluktuk temperature yesterday

Maximum temperature yesterday: 23 °F (at 3:00 PM)
Minimum temperature yesterday: 14 °F (at 12:00 AM)
Average temperature yesterday: 18 °F

Past Weeks' High & Low Weather Summary

 TemperatureHumidityPressure
High36 °F (Oct 10, 3:00 PM)100% (Oct 13, 7:00 AM)30.24 "Hg (Oct 13, 7:00 AM)
Low10 °F (Oct 16, 4:00 AM)62% (Oct 23, 5:00 AM)29.39 "Hg (Oct 20, 9:00 PM)
Average23 °F86%29.85 "Hg
* Reported Oct 10 6:00 AM — Oct 25 6:00 AM, Kugluktuk, Weather by CustomWeather, © 2014

Note: Actual official high and low records may vary slightly from our data, if they occured in-between our weather recording intervals... More about our weather records

Advertising

Kugluktuk weather history for previous 24 hours

 ConditionsComfort  
Time TempWeatherWind HumidityBarometerVisibility
6:00 AM
Oct 25
10 °FPassing clouds.16 mph79%29.85 "Hg15 mi
5:00 AM12 °FLight snow. Overcast.17 mph85%29.84 "Hg15 mi
4:00 AM12 °FLight snow. Low clouds.16 mph85%29.83 "Hg15 mi
3:00 AM14 °FLight snow. Low clouds.12 mph85%29.83 "Hg15 mi
2:00 AM14 °FLight snow. Low clouds.14 mph85%29.82 "Hg15 mi
1:00 AM16 °FLight snow. Low clouds.16 mph86%29.81 "Hg15 mi
12:00 AM16 °FLight snow. Mostly cloudy.14 mph86%29.80 "Hg15 mi
11:45 PM
Oct 24
N/ALight snow.13 mphN/AN/A15 mi
11:00 PM16 °FMostly cloudy.14 mph86%29.78 "Hg15 mi
10:00 PM16 °FLight snow. Mostly cloudy.14 mph86%29.78 "Hg10 mi
9:00 PM19 °FLight snow. Mostly cloudy.17 mph79%29.77 "Hg10 mi
8:00 PM19 °FLight snow. Mostly cloudy.18 mph86%29.76 "Hg10 mi
7:00 PM19 °FLight snow. Mostly cloudy.20 mph86%29.75 "Hg8 mi
6:00 PM21 °FLight snow. Mostly cloudy.17 mph86%29.73 "Hg8 mi
5:00 PM21 °FLight snow. Mostly cloudy.17 mph93%29.72 "Hg8 mi
4:00 PM23 °FLight snow. Mostly cloudy.20 mph93%29.70 "Hg8 mi
3:00 PM23 °FLight snow. Mostly cloudy.5 mph86%29.68 "Hg8 mi
2:00 PM19 °FLight snow. Mostly cloudy.10 mph86%29.67 "Hg8 mi
1:00 PM18 °FLight snow. Mostly cloudy.10 mph86%29.69 "Hg10 mi
12:00 PM18 °FLight snow. Mostly cloudy.10 mph86%29.69 "Hg12 mi
11:00 AM16 °FLight snow. Mostly cloudy.8 mph93%29.68 "Hg10 mi
10:00 AM16 °FLight snow. Mostly cloudy.3 mph86%29.69 "Hg6 mi
9:00 AM16 °FLight snow. Overcast.2 mph93%29.70 "Hg4 mi
8:00 AM16 °FLight snow. Overcast.9 mph86%29.70 "Hg4 mi
7:00 AM16 °FLight snow. Overcast.9 mph86%29.71 "Hg5 mi
Weather by CustomWeather, © 2014

See weather overviewHow to use our weather pages